Gloucester, Virginia, United States (23061)
Lat: 37.41N, Lon: 76.53W
Wx Zone: VAZ084
Local Info
Past Weather Observations for Today

NOTE: This archive is for the closest National Weather Service station to Gloucester. Information may differ from the station used for current weather conditions.

Click here for Long-term Archive

Time Weather Temperature Dewpoint Humidity Pressure Winds Precip Visibility
10:55
Overcast
54°F / 12°C 50°F / 10°C 88% 29.62 in
(1003 mb)
NE 8.1 mph
(NE 13 kph)
- 10SM
10:35
Overcast
55°F / 13°C 50°F / 10°C 82% 29.62 in
(1003 mb)
NE 9.2 mph
(NE 15 kph)
- 10SM
10:15
Overcast
55°F / 13°C 50°F / 10°C 82% 29.65 in
(1004 mb)
NE 8.1 mph
(NE 13 kph)
- 10SM
09:55
Overcast
54°F / 12°C 50°F / 10°C 88% 29.65 in
(1004 mb)
NNE 9.2 mph
(NNE 15 kph)
- 10SM
09:35
Overcast
54°F / 12°C 50°F / 10°C 88% 29.65 in
(1004 mb)
NE 5.8 mph
(NE 9 kph)
- 10SM
09:15
Overcast
54°F / 12°C 50°F / 10°C 88% 29.65 in
(1004 mb)
NE 6.9 mph
(NE 11 kph)
- 10SM
08:55
Overcast
54°F / 12°C 50°F / 10°C 88% 29.65 in
(1004 mb)
NE 6.9 mph
(NE 11 kph)
- 10SM
08:35
Overcast
54°F / 12°C 50°F / 10°C 88% 29.65 in
(1004 mb)
NE 5.8 mph
(NE 9 kph)
- 10SM
08:15
Overcast
54°F / 12°C 50°F / 10°C 88% 29.65 in
(1004 mb)
NE 6.9 mph
(NE 11 kph)
- 10SM
07:55
Overcast
52°F / 11°C 50°F / 10°C 94% 29.65 in
(1004 mb)
ENE 9.2 mph
(ENE 15 kph)
- 10SM
07:35
Overcast
52°F / 11°C 50°F / 10°C 94% 29.65 in
(1004 mb)
NE 5.8 mph
(NE 9 kph)
- 10SM
07:15
Overcast
52°F / 11°C 50°F / 10°C 94% 29.65 in
(1004 mb)
NE 5.8 mph
(NE 9 kph)
- 7SM
06:55
Overcast
52°F / 11°C 50°F / 10°C 94% 29.65 in
(1004 mb)
NE 6.9 mph
(NE 11 kph)
- 5SM
06:35
Overcast
52°F / 11°C 50°F / 10°C 94% 29.65 in
(1004 mb)
NE 4.6 mph
(NE 7 kph)
- 4SM
06:15
Overcast
52°F / 11°C 50°F / 10°C 94% 29.62 in
(1003 mb)
NE 9.2 mph
(NE 15 kph)
- 3SM
05:55
Overcast
52°F / 11°C 50°F / 10°C 94% 29.62 in
(1003 mb)
Calm - 4SM
05:35
Overcast
52°F / 11°C 50°F / 10°C 94% 29.62 in
(1003 mb)
NE 5.8 mph
(NE 9 kph)
- 7SM
05:15
Overcast
52°F / 11°C 50°F / 10°C 94% 29.62 in
(1003 mb)
NNE 5.8 mph
(NNE 9 kph)
- 10SM
04:55
Overcast
52°F / 11°C 50°F / 10°C 94% 29.62 in
(1003 mb)
NE 4.6 mph
(NE 7 kph)
- 10SM
04:35
Overcast
52°F / 11°C 52°F / 11°C 100% 29.62 in
(1003 mb)
NE 4.6 mph
(NE 7 kph)
- 7SM
04:15
Overcast
52°F / 11°C 52°F / 11°C 100% 29.62 in
(1003 mb)
NNE 6.9 mph
(NNE 11 kph)
- 5SM
03:55
Overcast
52°F / 11°C 52°F / 11°C 100% 29.62 in
(1003 mb)
NNE 3.5 mph
(NNE 6 kph)
- 7SM
03:35
Overcast
54°F / 12°C 52°F / 11°C 94% 29.62 in
(1003 mb)
NE 5.8 mph
(NE 9 kph)
- 10SM
03:15
Overcast
54°F / 12°C 52°F / 11°C 94% 29.62 in
(1003 mb)
NE 8.1 mph
(NE 13 kph)
- 10SM
02:55
Overcast
54°F / 12°C 52°F / 11°C 94% 29.65 in
(1004 mb)
NE 6.9 mph
(NE 11 kph)
- 10SM
02:35
Overcast
54°F / 12°C 52°F / 11°C 94% 29.65 in
(1004 mb)
NE 4.6 mph
(NE 7 kph)
- 10SM
02:15
Overcast
54°F / 12°C 52°F / 11°C 94% 29.65 in
(1004 mb)
ENE 8.1 mph
(ENE 13 kph)
- 10SM
01:55
Overcast
54°F / 12°C 54°F / 12°C 100% 29.65 in
(1004 mb)
E 8.1 mph
(E 13 kph)
- 10SM
01:35
Overcast
55°F / 13°C 54°F / 12°C 94% 29.65 in
(1004 mb)
ENE 8.1 mph
(ENE 13 kph)
- 10SM
01:15
Overcast
55°F / 13°C 54°F / 12°C 94% 29.65 in
(1004 mb)
ENE 8.1 mph
(ENE 13 kph)
- 5SM
00:55
Overcast
55°F / 13°C 54°F / 12°C 94% 29.65 in
(1004 mb)
NE 6.9 mph
(NE 11 kph)
- 10SM
00:35
Overcast
55°F / 13°C 54°F / 12°C 94% 29.65 in
(1004 mb)
ENE 9.2 mph
(ENE 15 kph)
- 3SM
00:15
Overcast
55°F / 13°C 54°F / 12°C 94% 29.68 in
(1005 mb)
NE 5.8 mph
(NE 9 kph)
- 7SM
Time Weather Temperature Dewpoint Humidity Pressure Winds Precip Visibility


Weather for websites

WeatherForYou.com, LLC is not responsible for any damages or problems caused by this service. Current weather conditions are obtained from the closest station including government and personal stations which may have varying degrees of accuracy. Weather forecasts are derived from the NOAA NDFD. Like all things, this site belongs to Jesus Christ... He just trusts us to maintain it. If you have any questions or comments email webmaster@weatherforyou.com

Copyright © 2016, WeatherForYou.com LLC. All rights reserved.